International Falls, MN

2:48 AM CDT on May 23, 2017 (GMT -0500)
Falls International

Weather History for KINL - October, 2012

Change the Weather History Date:

Monday, October 29, 2012

  Actual Average Record
Temperature  
Mean Temperature 36 °F 36 °F  
Max Temperature 45 °F 44 °F 72 °F (1950)
Min Temperature 26 °F 27 °F 6 °F (1988)
Degree Days  
Heating Degree Days 29 29  
Month to date heating degree days 723 682  
Since 1 July heating degree days 1250 1216  
Cooling Degree Days 0 0  
Month to date cooling degree days 0 0  
Year to date cooling degree days 222 192  
Moisture  
Dew Point 28 °F    
Average Humidity 75    
Maximum Humidity 96    
Minimum Humidity 53    
Precipitation  
Precipitation 0.01 in 0.06 in 0.84 in (1996)
Month to date precipitation 2.87 1.97  
Year to date precipitation 22.94 21.92  
Snow  
Snow T in 0.10 in 2.80 in (1955)
Month to date snowfall 1.6 1.9  
Since 1 July snowfall 1.6 2.0  
Since 1 September snowfall 1.6 2.0  
Snow Depth 0.00 in    
Sea Level Pressure  
Sea Level Pressure 30.35 in    
Wind  
Wind Speed 7 mph (ESE)    
Max Wind Speed 10 mph    
Max Gust Speed 15 mph    
Visibility 9 miles    
Events Snow    
T = Trace of Precipitation, MM = Missing Value Source: NWS Daily Summary

Daily Weather History Graph

Daily Weather History Graph

Search for Another Location

Airport or City:

Trip Planner

Search our weather history database for the weather conditions in past years. The results will help you decide how hot, cold, wet, or windy it might be!

Date:

Astronomy

Oct. 29, 2012 Rise Set
Actual Time 7:55 AM CDT 5:57 PM CDT
Civil Twilight 7:23 AM CDT 6:30 PM CDT
Nautical Twilight 6:46 AM CDT 7:07 PM CDT
Astronomical Twilight 6:09 AM CDT 7:43 PM CDT
Moon 5:46 PM CDT (10/29) 7:49 AM CDT (10/29)
Length of Visible Light 11h 07m
Length of Day
10h 01m
Full, 100% of the Moon is Illuminated
Oct 29
Full
Oct 29
Full
Nov 6
Last Quarter
Nov 13
New
Nov 20
First Quarter

Hourly Weather History & Observations

Time (CDT) Temp. Windchill Dew Point Humidity Pressure Visibility Wind Dir Wind Speed Gust Speed Precip Events Conditions
12:17 AM 21.2 °F 16.4 °F 17.6 °F 86% 30.32 in 10.0 mi SE 3.5 mph - N/A   Mostly Cloudy
12:55 AM 26.1 °F 19.4 °F 21.9 °F 84% 30.39 in 10.0 mi ESE 5.8 mph - N/A   Overcast
1:55 AM 26.1 °F 19.4 °F 21.9 °F 84% 30.38 in 10.0 mi ESE 5.8 mph - N/A   Overcast
2:55 AM 27.0 °F 21.6 °F 23.0 °F 85% 30.38 in 10.0 mi East 4.6 mph - N/A   Overcast
3:55 AM 28.0 °F 22.8 °F 24.1 °F 85% 30.37 in 10.0 mi East 4.6 mph - N/A   Overcast
4:55 AM 30.0 °F 25.2 °F 25.0 °F 82% 30.36 in 10.0 mi East 4.6 mph - 0.00 in   Overcast
5:33 AM 30.2 °F 22.6 °F 26.6 °F 86% 30.30 in 9.0 mi East 8.1 mph - 0.00 in Snow Light Snow
5:55 AM 30.0 °F 23.2 °F 26.1 °F 85% 30.37 in 10.0 mi East 6.9 mph - 0.00 in   Overcast
6:03 AM 30.2 °F 23.4 °F 26.6 °F 86% 30.30 in 8.0 mi East 6.9 mph - N/A Snow Light Snow
6:23 AM 30.2 °F 23.4 °F 26.6 °F 86% 30.30 in 5.0 mi East 6.9 mph - 0.00 in Snow Light Snow
6:55 AM 30.9 °F 25.2 °F 28.0 °F 89% 30.37 in 8.0 mi East 5.8 mph - 0.01 in Snow Light Snow
7:55 AM 30.9 °F 22.8 °F 28.9 °F 92% 30.37 in 5.0 mi East 9.2 mph - 0.00 in Snow Light Snow
8:16 AM 30.2 °F 24.3 °F 28.4 °F 93% 30.30 in 5.0 mi East 5.8 mph - 0.00 in Snow Light Snow
8:55 AM 32.0 °F 25.6 °F 30.0 °F 92% 30.37 in 9.0 mi East 6.9 mph - 0.00 in   Overcast
9:55 AM 34.0 °F 26.6 °F 30.0 °F 85% 30.37 in 10.0 mi ESE 9.2 mph - N/A   Overcast
10:55 AM 35.1 °F 27.9 °F 30.9 °F 85% 30.37 in 10.0 mi ESE 9.2 mph - N/A   Overcast
11:55 AM 37.9 °F 32.1 °F 30.9 °F 76% 30.37 in 10.0 mi SE 8.1 mph - N/A   Overcast
12:55 PM 39.9 °F 35.1 °F 28.9 °F 65% 30.36 in 10.0 mi SE 6.9 mph - N/A   Overcast
1:55 PM 42.1 °F 36.6 °F 28.0 °F 58% 30.34 in 10.0 mi SE 9.2 mph - N/A   Overcast
2:55 PM 44.1 °F 40.1 °F 28.0 °F 53% 30.33 in 10.0 mi SE 6.9 mph - N/A   Overcast
3:55 PM 44.1 °F 42.5 °F 28.0 °F 53% 30.33 in 10.0 mi South 3.5 mph - N/A   Overcast
4:55 PM 43.0 °F 38.8 °F 27.0 °F 53% 30.32 in 10.0 mi SE 6.9 mph - N/A   Overcast
5:55 PM 39.9 °F 35.1 °F 28.9 °F 65% 30.34 in 10.0 mi SE 6.9 mph - N/A   Overcast
6:55 PM 39.0 °F 35.7 °F 28.9 °F 67% 30.34 in 10.0 mi ESE 4.6 mph - N/A   Overcast
7:55 PM 34.0 °F 31.0 °F 28.0 °F 79% 30.34 in 10.0 mi East 3.5 mph - N/A   Scattered Clouds
8:55 PM 35.1 °F 29.3 °F 30.9 °F 85% 30.33 in 10.0 mi East 6.9 mph - N/A   Clear
9:55 PM 34.0 °F 28.0 °F 32.0 °F 92% 30.34 in 10.0 mi ESE 6.9 mph - N/A   Scattered Clouds
10:55 PM 33.1 °F 27.7 °F 30.9 °F 92% 30.34 in 10.0 mi ESE 5.8 mph - N/A   Mostly Cloudy
11:55 PM 35.1 °F 29.3 °F 32.0 °F 89% 30.34 in 10.0 mi ESE 6.9 mph - N/A   Overcast